Skip Page Navigation
NASA JPL Caltech
NASA Logo - Jet Propulsion Laboratory + View the NASA Portal
+ Near-Earth Object (NEO) Program
Search JPL
JPL Home Earth Solar System Stars & Galaxies Technology
JPL Solar System Dynamics
BODIES ORBITS EPHEMERIDES TOOLS PHYSICAL DATA DISCOVERY FAQ SITE MAP
JPL Small-Body Database Browser
Search: [ help ]  
90377 Sedna (2003 VB12)
Classification: TransNeptunian Object          SPK-ID: 2090377
Ephemeris | Orbit Diagram | Orbital Elements | Physical Parameters | Discovery Circumstances ]

[ hide orbit diagram ]
Orbit Diagram
Note: Make sure you have Java enabled on your browser to see the applet. This applet is provided as a 3D orbit visualization tool. The applet was implemented using 2-body methods, and hence should not be used for determining accurate long-term trajectories (over several years or decades) or planetary encounter circumstances. For accurate long-term ephemerides, please instead use our Horizons system.
Orbit Viewer

Additional Notes: the orbits shown in the applet are color coded. The planets are white lines, and the asteroid/comet is a blue line. The bright white line indicates the portion of the orbit that is above the ecliptic plane, and the darker portion is below the ecliptic plane. Likewise for the asteroid/comet orbit, the light blue indicates the portion above the ecliptic plane, and the dark blue the portion below the ecliptic plane.

Orbit Viewer applet originally written and kindly provided by Osamu Ajiki (AstroArts), and further modified by Ron Baalke (JPL).


Orbital Elements at Epoch 2456400.5 (2013-Apr-18.0) TDB
Reference: JPL 19 (heliocentric ecliptic J2000)
 Element Value Uncertainty (1-sigma)   Units 
e .859527889849002 0.00046965  
a 542.6638822258875 1.8102 AU
q 76.22914063900309 0.011706 AU
i 11.92839938218844 7.1815e-05 deg
node 144.4662347163287 0.0034911 deg
peri 311.0109102088686 0.017606 deg
M 358.2226377234882 0.0089838 deg
tp 2479197.004550184480
(2075-Sep-16.50455018)
5.4866 JED
period 4617371.340958464
12641.67
23103
63.25
d
yr
n 7.796643878446908E-5 3.9011e-07 deg/d
Q 1009.098623812772 3.3661 AU
  Orbit Determination Parameters
   # obs. used (total)      88  
   data-arc span      8057 days (22.06 yr)  
   first obs. used      1990-09-25  
   last obs. used      2012-10-16  
   planetary ephem.      DE405  
   SB-pert. ephem.      SB405-CPV-2  
   condition code      2  
   fit RMS      .64543  
   data source      ORB  
   producer      Otto Matic  
   solution date      2012-Dec-03 14:16:54  

Additional Information
 Earth MOID = 75.2575 AU 
 T_jup = 10.223 
[ show covariance matrix ]

Ephemeris | Orbit Diagram | Orbital Elements | Physical Parameters | Discovery Circumstances ]

Physical Parameter Table
Parameter Symbol Value Units Sigma Reference Notes
absolute magnitude H 1.5458 mag .35495 19 autocmod 2.5b
rotation period rot_per 10.273 h n/a Asteroid Lightcurve DataBase (Rev. 2013-May-01) Result based on less than full coverage, so that the period may be wrong by 30 percent or so.
Published Reference List:
[Gaudi, B.S.; Stanek, K.Z.; Hartman, J.D.; Holman, M.J.; McLeod, B.A. (2005) Astrophys. J. 629, L49-L52.]

90377 Sedna           Discovered 2003 Nov. 14 by M. E. Brown, C. A. Trujillo and D. Rabinowitz at Palomar.
Sedna is the Inuit goddess of the sea and the mother of all sea creatures. She rewards the people of the land with food from the sea. Without her blessing, hunts fail and the people starve. She is thus one of the most important figures in Inuit legend.
NOTE: some special characters may not display properly (any characters within {} are an attempt to place the proper accent above a character)
Reference: 20040928/MPCPages.arcLast Updated: 2004-09-28
Ephemeris | Orbit Diagram | Orbital Elements | Physical Parameters | Discovery Circumstances ]
ABOUT SSD CREDITS/AWARDS PRIVACY/COPYRIGHT GLOSSARY LINKS
FirstGov 2013-May-24 23:34 UT
(server date/time)  
NASA Home Page
Site Manager:   Donald K. Yeomans
Webmaster  Alan B. Chamberlin